Home   Weather   Port Coquitlam   Past weeks
Flag for Canada

Past Weather in Port Coquitlam, British Columbia, Canada — Yesterday and Last 2 Weeks

Now
60 °F

Cool.


Feels Like: 60 °F
Forecast: 62 / 54 °F
Wind: 2 mph from Southeast

Location: P. Meadows Coastal Station

Current Time: Sep 22, 2019 at 11:42:29 am

Latest Report: Sep 22, 2019 at 11:00 am


Visibility: N/A

Pressure: 29.84 "Hg

Humidity: 95%

Dew Point: 58 °F

Location of Port CoquitlamLocation

Past Weather in Port Coquitlam — Graph

°F

Port Coquitlam Temperature Yesterday

Maximum temperature yesterday: 67 °F (at 3:00 pm)
Minimum temperature yesterday: 54 °F (at 1:00 am)
Average temperature yesterday: 60 °F

High & Low Weather Summary for the Past Weeks

 TemperatureHumidityPressure
High71 °F (Sep 10, 4:00 pm)100% (Sep 20, 1:00 am)30.18 "Hg (Sep 20, 1:00 am)
Low50 °F (Sep 19, 1:00 am)56% (Sep 20, 5:00 pm)29.67 "Hg (Sep 15, 5:00 am)
Average60 °F86%29.94 "Hg
* Reported Sep 7 10:00 am — Sep 22 10:00 am, Port Coquitlam. Weather by CustomWeather, © 2019

Note: Actual official high and low records may vary slightly from our data, if they occured in-between our weather recording intervals... More about our weather records

Advertising

Port Coquitlam Weather History for the Previous 24 Hours

Scroll right to see more
 ConditionsComfort  
Time TempWeatherWind HumidityBarometerVisibility
10:00 am
Sun, Sep 22
59 °FCool.2 mph95%29.84 "HgN/A
9:00 am58 °FCool.2 mph95%29.84 "HgN/A
8:00 am58 °FCool.2 mph95%29.84 "HgN/A
7:00 am58 °FCool.2 mph96%29.84 "HgN/A
6:00 am58 °FCool.3 mph96%29.85 "HgN/A
5:00 am58 °FCool.3 mph95%29.86 "HgN/A
4:00 am58 °FCool.6 mph95%29.87 "HgN/A
3:00 am58 °FCool.2 mph95%29.90 "HgN/A
2:00 am59 °FCool.2 mph94%29.92 "HgN/A
1:00 am59 °FCool.1 mph93%29.93 "HgN/A
12:00 am59 °FCool.5 mph92%29.96 "HgN/A
11:00 pm
Sat, Sep 21
61 °FCool.5 mph87%29.96 "HgN/A
10:00 pm61 °FCool.2 mph85%29.98 "HgN/A
9:00 pm62 °FCool.2 mph81%29.99 "HgN/A
8:00 pm62 °FCool.1 mph75%30.01 "HgN/A
7:00 pm63 °FMild.No wind72%30.01 "HgN/A
6:00 pm64 °FMild.3 mph70%30.03 "HgN/A
5:00 pm67 °FMild.2 mph65%30.03 "HgN/A
4:00 pm67 °FMild.5 mph63%30.05 "HgN/A
3:00 pm67 °FMild.2 mph61%30.07 "HgN/A
2:00 pm66 °FMild.1 mph66%30.10 "HgN/A
1:00 pm64 °FMild.3 mph70%30.11 "HgN/A
12:00 pm63 °FMild.1 mph79%30.12 "HgN/A
11:00 am61 °FCool.2 mph84%30.13 "HgN/A
Weather by CustomWeather, © 2019

See weather overview